Home   Weather   Hartford   Past weeks

Flag for USA Past Weather in Hartford, Connecticut, USA — Yesterday and Last 2 Weeks

Now
77 °F

Sunny.


Feels Like: 78 °F
Forecast: 58 / 82 °F
Wind: N/A

Location: Hartford-Brainard Airport

Current Time: Aug 17, 2017 at 1:57:41 pm

Latest Report: Aug 17, 2017 at 12:53 pm


Visibility: N/A

Pressure: 30.04 "Hg

Humidity: 40%

Dew Point: 51 °F

Location of HartfordLocation

Past Weather in Hartford — Graph

°F

Hartford Temperature Yesterday

Maximum temperature yesterday: 86 °F (at 2:53 pm)
Minimum temperature yesterday: 67 °F (at 5:53 am)
Average temperature yesterday: 76 °F

High & Low Weather Summary for the Past Weeks

 TemperatureHumidityPressure
High86 °F (Aug 4, 1:53 pm)100% (Aug 2, 11:11 pm)30.25 "Hg (Aug 2, 11:11 pm)
Low57 °F (Aug 9, 6:16 am)40% (Aug 9, 2:53 pm)29.80 "Hg (Aug 5, 3:00 pm)
Average72 °F76%30.01 "Hg
* Reported Aug 2 2:00 pm — Aug 17 11:53 am, Hartford. Weather by CustomWeather, © 2017

Note: Actual official high and low records may vary slightly from our data, if they occured in-between our weather recording intervals... More about our weather records

Advertising

Hartford Weather History for the Previous 24 Hours

Scroll right to see more
 ConditionsComfort  
Time TempWeatherWind HumidityBarometerVisibility
11:53 am
Thu, Aug 17
75 °FSunny.3 mph50%30.06 "HgN/A
10:53 am74 °FSunny.3 mph53%30.07 "Hg10 mi
9:53 am72 °FSunny.3 mph55%30.09 "Hg10 mi
8:53 am70 °FSunny.No wind64%30.09 "Hg10 mi
7:53 am66 °FSunny.3 mph73%30.09 "Hg10 mi
6:53 am61 °FSunny.No wind93%30.07 "Hg10 mi
5:53 am61 °FClear.3 mph90%30.05 "Hg10 mi
4:53 am62 °FClear.7 mph86%30.04 "Hg10 mi
3:53 am64 °FClear.6 mph81%30.03 "Hg10 mi
2:53 am66 °FClear.5 mph75%30.03 "Hg10 mi
1:53 am67 °FClear.5 mph73%30.03 "Hg10 mi
12:53 am69 °FClear.3 mph68%30.02 "Hg10 mi
11:53 pm
Wed, Aug 16
72 °FClear.6 mph59%30.01 "Hg10 mi
10:53 pm75 °FClear.7 mph54%30.01 "Hg10 mi
9:53 pm76 °FClear.5 mph54%30.00 "Hg10 mi
8:53 pm78 °FClear.5 mph54%29.98 "Hg10 mi
7:53 pm79 °FClear.5 mph50%29.96 "Hg10 mi
6:53 pm82 °FSunny.6 mph44%29.94 "Hg10 mi
5:53 pm84 °FSunny.7 mph41%29.93 "Hg10 mi
4:53 pm85 °FPassing clouds.12 mph40%29.92 "Hg10 mi
3:53 pm86 °FPassing clouds.9 mph42%29.92 "Hg10 mi
2:53 pm86 °FPassing clouds.12 mph43%29.92 "Hg10 mi
1:53 pm84 °FScattered clouds.12 mph46%29.94 "Hg10 mi
Weather by CustomWeather, © 2017

See weather overviewHow to use our weather pages